Regional Weather Roundup
Issued by NWS

Home | Current Version | Previous Version | Graphics & Text | Print | Product List | Glossary On
Versions: 1 2 3 4 5 6 7 8 9 10 11 12 13 14 15 16 17 18 19 20 21 22 23 24 25 26 27
000
ASUS45 KBOU 171206
RWRCO

WEATHER ROUNDUP FOR COLORADO
NATIONAL WEATHER SERVICE DENVER/BOULDER CO
600 AM MDT THU APR 17 2014

NOTE: "FAIR" INDICATES FEW OR NO CLOUDS BELOW 12000 FEET WITH NO
SIGNIFICANT WEATHER AND/OR OBSTRUCTIONS TO VISIBILITY.

COZ001>005-013-030-031-171300-
...NORTHWEST COLORADO...

CITY           SKY/WX    TMP DP  RH WIND       PRES   REMARKS
CRAIG          CLEAR     20  17  88 CALM      30.09R
HAYDEN         CLEAR     25  16  68 E6        30.10R WCI  18
MEEKER         CLEAR     27  20  75 CALM      30.08R
MOUNT WERNER   NOT AVBL
STEAMBOAT SPGS MOCLDY    26  16  65 CALM      30.08S
WALDEN         PTCLDY    21  14  73 CALM      30.07R
$$

COZ006>008-011-171300-
...WEST CENTRAL VALLEYS...

CITY           SKY/WX    TMP DP  RH WIND       PRES   REMARKS
GRAND JUNCTION CLEAR     37  21  52 E9        30.03R
MONTROSE       CLEAR     34  24  67 SE7       30.08R WCI  28
EAGLE          PTCLDY    25  21  86 E6        30.12R WCI  18
RIFLE          CLEAR     28  22  78 VRB3      30.07R
DELTA          CLEAR     35  23  62 E5        30.07R WCI  31
NUCLA            N/A     32  23  69 SE5       30.12R WCI  27
$$

COZ017>023-064>068-171300-
...SOUTHWEST COLORADO...

CITY           SKY/WX    TMP DP  RH WIND       PRES   REMARKS
DURANGO        CLEAR     26  17  68 CALM      30.07R
CORTEZ         CLEAR     26  20  77 NE5       30.08R WCI  20
PAGOSA SPRINGS CLEAR     30  20  65 CALM      30.09R
TELLURIDE      CLEAR     28  19  69 SE6       30.12R WCI  22
WOLF CREEK PAS PTCLDY    19   9  63 N3        30.15R
$$

COZ009-010-012-014-032>034-037-058>063-171300-
...CENTRAL COLORADO...

CITY           SKY/WX    TMP DP  RH WIND       PRES   REMARKS
ASPEN          PTCLDY    27  15  61 SW8       30.08R WCI  19
BUENA VISTA    CLOUDY    28  27  95 CALM      30.14S FOG
COPPER MTN     PTCLDY    23  10  58 SW9G18    30.12R WCI  13
BERTHOUD PASS  FAIR      14   5  67 W28       30.09R WCI  -6
COTTONWOOD PAS CLOUDY    27  23  86 CALM      30.13S
GUNNISON       CLEAR     23  16  74 CALM      30.16R
KREMMLING      CLOUDY    25  21  86 CALM      30.11R
LEADVILLE      CLOUDY    21  19  92 CALM      30.12R
MONARCH PASS   CLOUDY    18  14  86 MISG      30.24R
SALIDA         PTCLDY    30  29  94 CALM      30.22R
SUNLIGHT       PTCLDY    27  14  59 CALM      30.14S
WILKERSON PASS CLOUDY    19  18  93 SW8       30.15R FOG     WCI   9
$$

COZ069>075-171300-
...SAN LUIS VALLEY/SANGRE DE CRISTO MOUNTAINS...

CITY           SKY/WX    TMP DP  RH WIND       PRES   REMARKS
ALAMOSA        MOCLDY    30  28  92 NE7       30.12R WCI  23
LA VETA PASS   CLOUDY    23  21  93 CALM      30.13R FOG
SAGUACHE       CLOUDY    32  27  80 NW7       30.14R WCI  26
$$

COZ035-036-038>040-171300-
...NORTHERN COLORADO FRONT RANGE...

CITY           SKY/WX    TMP DP  RH WIND       PRES   REMARKS
DENVER INTL AP PTCLDY    32  28  85 S9        30.05S WCI  24
DMNS CITY PARK   N/A     36  29  76 S7        30.06S
AURORA         PTCLDY    36  30  80 S20       30.04S
FRONT RANGE AP NOT AVBL
ERIE MUNI ARPT CLEAR     29  28  94 CALM      30.06S
BOULDER MUN AP CLEAR     34  32  93 NW5       30.06R WCI  30
CENTENNIAL     PTCLDY    34  28  79 S17       30.06S WCI  23
BROOMFIELD     PTCLDY    32  28  86 W6        30.06S WCI  26
FORT COLLINS   CLEAR     28  27  93 N6        30.08S WCI  22
LONGMONT       CLEAR     34  32  90 N8        30.08S WCI  28
$$

COZ041-046-047-076>085-087-088-171300-
...PIKES PEAK/PALMER DIVIDE AND SOUTHERN FOOTHILLS...

CITY           SKY/WX    TMP DP  RH WIND       PRES   REMARKS
COLO. SPRINGS  FOG       32  31  96 SE16      30.13R VSB 1/8 WCI  21
A. F. ACADEMY  CLOUDY    32  32 100 CALM      30.12R
ELLICOTT       NOT AVBL
FALCON         FOG       32  32 100 S14       30.13S VSB 3/4 WCI  22
FORT CARSON    PTCLDY    31  31  99 SE9       30.12R WCI  23
LIMON          PTCLDY    31  30  96 SE7       30.13R WCI  24
MONUMENT HILL  CLOUDY    30  30 100 S16G24    30.08S WCI  19
TRINIDAD       CLOUDY    34  33  96 E5        30.15S WCI  30
$$

COZ042>045-048>051-090-091-171300-
...NORTHEAST COLORADO...

CITY           SKY/WX    TMP DP  RH WIND       PRES   REMARKS
GREELEY ARPT   CLEAR     28  23  80 E7        30.09R WCI  21
AKRON          FOG       32  32 100 SE13      30.13R VSB 1/2 WCI  22
BURLINGTON     MOCLDY    30  27  88 E6        30.16S WCI  24
WRAY           CLOUDY    33  32  98 E6        30.18S FOG     WCI  27
STERLING       CLOUDY    36  36 100 SE9       30.14R FOG
HOLYOKE        CLOUDY    34  32  93 E5        30.19R FOG     WCI  30
FORT MORGAN    CLEAR     28  28  97 E10       30.11S WCI  19
$$

COZ086-089-092>099-171300-
...SOUTHEAST COLORADO...

CITY           SKY/WX    TMP DP  RH WIND       PRES   REMARKS
PUEBLO         CLOUDY    38  37  97 W5        30.15R
LA JUNTA       CLOUDY    40  37  89 SE9       30.16R
LAMAR          LGT RAIN  41  38  89 SE3       30.16R
SPRINGFIELD      N/A     37  35  92 NE10      30.17R
$$



USA.gov is the U.S. government's official web portal to all federal, state and local government web resources and services.